�������l�o���
Date,Time,MP-1(��Sv/h),MP-2(��Sv/h),MP-3(��Sv/h),MP-4(��Sv/h),MP-5(��Sv/h),MP-6(��Sv/h),MP-7(��Sv/h),MP-8(��Sv/h),����,����(m/s),���J
2019/02/08,00:00,0.786,1.167,0.811,1.499,1.077,0.449,0.800,0.754,�k�k��,6.4,��
2019/02/08,00:10,0.787,1.170,0.809,1.500,1.078,0.450,0.800,0.754,�k,5.3,��
2019/02/08,00:20,0.786,1.167,0.809,1.500,1.076,0.448,0.799,0.754,�k,6.0,��
2019/02/08,00:30,0.786,1.169,0.808,1.501,1.079,0.448,0.798,0.754,�k,5.2,��
2019/02/08,00:40,0.787,1.168,0.809,1.500,1.077,0.448,0.799,0.753,�k,4.3,��
2019/02/08,00:50,0.785,1.168,0.808,1.499,1.077,0.450,0.798,0.754,�k,4.4,��
2019/02/08,01:00,0.786,1.169,0.809,1.497,1.078,0.447,0.799,0.754,�k�k��,2.3,��
2019/02/08,01:10,0.784,1.169,0.810,1.496,1.075,0.449,0.799,0.754,�k�k��,5.1,��
2019/02/08,01:20,0.787,1.170,0.809,1.500,1.079,0.448,0.798,0.755,�k�k��,7.1,��
2019/02/08,01:30,0.786,1.166,0.811,1.498,1.079,0.448,0.800,0.753,�k�k��,7.0,��
2019/02/08,01:40,0.787,1.167,0.808,1.496,1.079,0.448,0.797,0.754,�k��,8.5,��
2019/02/08,01:50,0.787,1.167,0.809,1.498,1.078,0.449,0.799,0.753,�k��,5.5,��
2019/02/08,02:00,0.785,1.167,0.808,1.495,1.078,0.447,0.797,0.754,�k,5.2,��
2019/02/08,02:10,0.787,1.167,0.810,1.498,1.078,0.447,0.799,0.754,�k,6.2,��
2019/02/08,02:20,0.786,1.171,0.808,1.499,1.079,0.448,0.797,0.753,�k��,6.2,��
2019/02/08,02:30,0.786,1.170,0.811,1.501,1.080,0.450,0.797,0.754,�k�k��,5.4,��
2019/02/08,02:40,0.784,1.167,0.808,1.498,1.078,0.449,0.798,0.755,�k��,7.1,��
2019/02/08,02:50,0.785,1.168,0.808,1.498,1.078,0.448,0.799,0.754,�k��,11.0,��
2019/02/08,03:00,0.785,1.168,0.809,1.498,1.078,0.448,0.798,0.754,�k��,11.9,��
2019/02/08,03:10,0.786,1.169,0.806,1.498,1.076,0.449,0.798,0.754,�k��,12.0,��
2019/02/08,03:20,0.786,1.166,0.807,1.498,1.079,0.449,0.798,0.755,�k��,11.6,��
2019/02/08,03:30,0.784,1.162,0.804,1.495,1.078,0.447,0.798,0.753,�k��,12.5,��
2019/02/08,03:40,0.782,1.165,0.806,1.496,1.077,0.445,0.798,0.753,�k�k��,12.8,��
2019/02/08,03:50,0.783,1.163,0.805,1.496,1.079,0.445,0.797,0.754,�k�k��,10.6,��
2019/02/08,04:00,0.784,1.163,0.806,1.497,1.077,0.447,0.796,0.752,�k�k��,11.6,��
2019/02/08,04:10,0.785,1.166,0.809,1.495,1.076,0.446,0.795,0.755,�k�k��,11.3,��
2019/02/08,04:20,0.784,1.167,0.806,1.494,1.077,0.444,0.798,0.752,�k�k��,9.6,��
2019/02/08,04:30,0.784,1.166,0.806,1.496,1.077,0.444,0.797,0.753,�k�k��,9.2,��
2019/02/08,04:40,0.786,1.166,0.806,1.497,1.078,0.445,0.799,0.752,�k�k��,9.5,��
2019/02/08,04:50,0.785,1.163,0.804,1.497,1.077,0.445,0.796,0.753,�k��,11.4,��
2019/02/08,05:00,0.785,1.165,0.806,1.496,1.078,0.444,0.797,0.754,�k��,10.2,��
2019/02/08,05:10,0.784,1.168,0.806,1.498,1.078,0.443,0.797,0.754,�k�k��,9.0,��
2019/02/08,05:20,0.783,1.166,0.807,1.497,1.077,0.444,0.795,0.752,�k��,10.5,��
2019/02/08,05:30,0.785,1.167,0.809,1.496,1.078,0.444,0.797,0.755,�k�k��,9.5,��
2019/02/08,05:40,0.785,1.166,0.809,1.499,1.078,0.445,0.798,0.753,�k��,9.7,��
2019/02/08,05:50,0.785,1.169,0.808,1.497,1.079,0.444,0.795,0.754,�k��,11.3,��
2019/02/08,06:00,0.783,1.167,0.806,1.498,1.077,0.446,0.797,0.755,�k�k��,9.3,��
2019/02/08,06:10,0.786,1.168,0.807,1.498,1.078,0.445,0.796,0.752,�k��,7.6,��
2019/02/08,06:20,0.782,1.169,0.806,1.496,1.077,0.444,0.797,0.753,�k��,9.3,��
2019/02/08,06:30,0.785,1.167,0.806,1.496,1.079,0.445,0.797,0.751,�k��,8.8,��
2019/02/08,06:40,0.785,1.170,0.807,1.497,1.078,0.444,0.796,0.754,�k��,8.1,��
2019/02/08,06:50,0.784,1.165,0.808,1.496,1.077,0.446,0.796,0.754,�k��,6.0,��
2019/02/08,07:00,0.784,1.167,0.805,1.496,1.075,0.445,0.796,0.754,�k��,6.8,��
2019/02/08,07:10,0.783,1.166,0.807,1.497,1.078,0.446,0.796,0.752,�k�k��,6.4,��
2019/02/08,07:20,0.785,1.166,0.806,1.497,1.077,0.445,0.795,0.754,�k��,5.2,��
2019/02/08,07:30,0.783,1.168,0.808,1.499,1.078,0.446,0.794,0.753,�k��,5.8,��
2019/02/08,07:40,0.785,1.167,0.805,1.498,1.076,0.444,0.795,0.753,�k��,5.4,��
2019/02/08,07:50,0.784,1.167,0.805,1.497,1.075,0.445,0.796,0.753,�k�k��,6.4,��
2019/02/08,08:00,0.784,1.167,0.808,1.495,1.075,0.445,0.796,0.754,�k�k��,6.7,��
2019/02/08,08:10,0.784,1.167,0.808,1.499,1.077,0.446,0.796,0.753,�k�k��,5.5,��
2019/02/08,08:20,0.783,1.165,0.806,1.498,1.079,0.444,0.795,0.752,�k�k��,5.8,��
2019/02/08,08:30,0.784,1.163,0.804,1.498,1.077,0.445,0.796,0.752,�k�k��,5.2,��
2019/02/08,08:40,0.783,1.166,0.807,1.496,1.076,0.444,0.796,0.754,�k�k��,5.3,��
2019/02/08,08:50,0.782,1.165,0.805,1.494,1.077,0.444,0.794,0.753,�k�k��,5.5,��
2019/02/08,09:00,0.784,1.164,0.806,1.491,1.080,0.446,0.795,0.753,�k�k��,5.4,��
2019/02/08,09:10,0.782,1.164,0.805,1.490,1.076,0.445,0.797,0.752,�k,3.9,��
2019/02/08,09:20,0.783,1.166,0.807,1.494,1.077,0.444,0.796,0.754,�k,4.0,��
2019/02/08,09:30,0.784,1.163,0.806,1.494,1.077,0.446,0.796,0.752,�k,3.0,��
2019/02/08,09:40,0.785,1.161,0.806,1.491,1.077,0.445,0.796,0.753,�k�k��,2.8,��
2019/02/08,09:50,0.784,1.163,0.807,1.494,1.078,0.446,0.795,0.754,�k,3.1,��
2019/02/08,10:00,0.776,1.162,0.806,1.494,1.078,0.445,0.796,0.751,�k,2.3,��
2019/02/08,10:10,0.781,1.162,0.804,1.493,1.077,0.444,0.797,0.752,�k,3.9,��
2019/02/08,10:20,0.784,1.164,0.805,1.493,1.077,0.445,0.796,0.753,�k,4.1,��
2019/02/08,10:30,0.792,1.162,0.807,1.495,1.078,0.444,0.796,0.752,�k,4.5,��
2019/02/08,10:40,0.794,1.164,0.807,1.494,1.077,0.445,0.797,0.753,�k,3.7,��
2019/02/08,10:50,0.791,1.163,0.807,1.494,1.076,0.444,0.797,0.752,�k�k��,4.2,��
2019/02/08,11:00,0.789,1.166,0.809,1.496,1.074,0.446,0.797,0.751,�k�k��,3.1,��
2019/02/08,11:10,0.794,1.165,0.806,1.500,1.072,0.445,0.798,0.753,-,CALM,��
2019/02/08,11:20,0.793,1.165,0.808,1.499,1.055,0.446,0.797,0.753,�k�k��,2.2,��
2019/02/08,11:30,0.793,1.165,0.807,1.501,1.076,0.446,0.796,0.752,���k��,2.5,��
2019/02/08,11:40,0.793,1.167,0.807,1.502,1.078,0.445,0.796,0.751,�k�k��,3.7,��
2019/02/08,11:50,0.793,1.167,0.811,1.501,1.079,0.444,0.795,0.752,�k�k��,3.4,��
2019/02/08,12:00,0.792,1.169,0.808,1.501,1.080,0.444,0.794,0.753,�k��,3.0,��
2019/02/08,12:10,0.793,1.171,0.809,1.500,1.077,0.443,0.795,0.751,�k,3.3,��
2019/02/08,12:20,0.787,1.169,0.808,1.499,1.080,0.445,0.794,0.751,�k�k��,2.2,��
2019/02/08,12:30,0.786,1.169,0.808,1.500,1.078,0.446,0.794,0.753,�k��,2.2,��
2019/02/08,12:40,0.786,1.167,0.806,1.498,1.078,0.447,0.797,0.751,�k��,2.7,��
2019/02/08,12:50,0.785,1.165,0.808,1.499,1.078,0.446,0.794,0.752,�k�k��,3.2,��
2019/02/08,13:00,0.786,1.164,0.807,1.501,1.077,0.446,0.797,0.752,�k�k��,2.0,��
2019/02/08,13:10,0.788,1.163,0.808,1.499,1.079,0.445,0.796,0.751,���쓌,1.7,��
2019/02/08,13:20,0.786,1.161,0.810,1.501,1.081,0.445,0.797,0.751,���k��,4.5,��
2019/02/08,13:30,0.785,1.163,0.808,1.500,1.081,0.446,0.795,0.753,���쐼,6.8,��
2019/02/08,13:40,0.788,1.166,0.811,1.499,1.080,0.447,0.796,0.754,�k�k��,4.8,��
2019/02/08,13:50,0.787,1.164,0.808,1.498,1.081,0.447,0.796,0.754,���k��,5.2,��
2019/02/08,14:00,0.787,1.164,0.808,1.501,1.081,0.447,0.795,0.753,��,6.5,��
2019/02/08,14:10,0.786,1.162,0.808,1.501,1.078,0.446,0.793,0.753,��,8.9,��
2019/02/08,14:20,0.787,1.166,0.809,1.499,1.078,0.445,0.794,0.754,��,8.9,��
2019/02/08,14:30,0.788,1.165,0.810,1.498,1.079,0.446,0.796,0.753,��,9.7,��
2019/02/08,14:40,0.787,1.168,0.808,1.497,1.079,0.447,0.794,0.755,��,7.7,��
2019/02/08,14:50,0.786,1.166,0.807,1.500,1.078,0.447,0.795,0.752,��,7.2,��
2019/02/08,15:00,0.786,1.167,0.809,1.500,1.077,0.448,0.797,0.753,���쐼,9.2,��
2019/02/08,15:10,0.788,1.166,0.809,1.501,1.077,0.447,0.795,0.752,���쐼,8.1,��
2019/02/08,15:20,0.788,1.163,0.809,1.499,1.078,0.447,0.798,0.752,��,9.8,��
2019/02/08,15:30,0.784,1.166,0.807,1.500,1.079,0.446,0.798,0.753,��,7.2,��
2019/02/08,15:40,0.787,1.168,0.808,1.501,1.077,0.448,0.796,0.753,��,6.7,��
2019/02/08,15:50,0.786,1.167,0.808,1.501,1.079,0.446,0.797,0.752,��,6.5,��
2019/02/08,16:00,0.786,1.169,0.806,1.499,1.082,0.448,0.797,0.751,��,6.1,��
2019/02/08,16:10,0.786,1.170,0.807,1.501,1.078,0.446,0.797,0.751,��,5.8,��
2019/02/08,16:20,0.786,1.170,0.807,1.501,1.080,0.447,0.798,0.755,���쐼,5.5,��
2019/02/08,16:30,0.786,1.167,0.807,1.497,1.078,0.445,0.795,0.753,���쐼,5.9,��
2019/02/08,16:40,0.786,1.173,0.808,1.501,1.080,0.447,0.796,0.755,�k�k��,3.0,��
2019/02/08,16:50,0.787,1.171,0.808,1.501,1.080,0.446,0.796,0.753,�k�k��,2.3,��
2019/02/08,17:00,0.785,1.170,0.808,1.501,1.080,0.448,0.796,0.752,�k�k��,0.9,��
2019/02/08,17:10,0.785,1.171,0.808,1.502,1.080,0.446,0.795,0.752,�k,3.1,��
2019/02/08,17:20,0.785,1.171,0.808,1.500,1.080,0.448,0.796,0.751,�k,4.1,��
2019/02/08,17:30,0.785,1.172,0.808,1.499,1.079,0.448,0.796,0.752,�k,3.2,��
2019/02/08,17:40,0.782,1.171,0.806,1.500,1.079,0.446,0.796,0.751,�k�k��,1.9,��
2019/02/08,17:50,0.785,1.169,0.808,1.500,1.079,0.447,0.794,0.752,�k�k��,2.5,��
2019/02/08,18:00,0.784,1.171,0.808,1.499,1.079,0.447,0.795,0.753,�k��,2.0,��
2019/02/08,18:10,0.784,1.171,0.806,1.497,1.078,0.446,0.794,0.753,���k��,1.2,��
2019/02/08,18:20,0.786,1.170,0.806,1.501,1.080,0.445,0.795,0.751,��,0.9,��
2019/02/08,18:30,0.785,1.169,0.806,1.497,1.078,0.445,0.795,0.752,�쐼,1.1,��
2019/02/08,18:40,0.784,1.169,0.807,1.499,1.078,0.445,0.795,0.752,��,1.9,��
2019/02/08,18:50,0.783,1.169,0.807,1.499,1.079,0.446,0.795,0.751,��,0.9,��
2019/02/08,19:00,0.783,1.171,0.806,1.500,1.079,0.446,0.795,0.752,��,0.9,��
2019/02/08,19:10,0.782,1.170,0.807,1.497,1.078,0.444,0.795,0.753,���k��,0.9,��
2019/02/08,19:20,0.783,1.171,0.809,1.499,1.077,0.445,0.794,0.752,�k��,1.4,��
2019/02/08,19:30,0.783,1.170,0.808,1.499,1.078,0.445,0.793,0.751,�k��,1.7,��
2019/02/08,19:40,0.783,1.170,0.806,1.497,1.078,0.447,0.793,0.750,�k�k��,0.9,��
2019/02/08,19:50,0.781,1.169,0.806,1.498,1.078,0.446,0.794,0.751,�k�k��,0.8,��
2019/02/08,20:00,0.784,1.171,0.806,1.500,1.079,0.446,0.793,0.750,�k��,1.2,��
2019/02/08,20:10,0.784,1.168,0.805,1.499,1.077,0.445,0.793,0.751,�k��,1.2,��
2019/02/08,20:20,0.785,1.169,0.807,1.500,1.077,0.445,0.794,0.751,�쐼,0.9,��
2019/02/08,20:30,0.782,1.170,0.805,1.499,1.079,0.446,0.793,0.751,��,1.2,��
2019/02/08,20:40,0.784,1.168,0.805,1.497,1.079,0.445,0.793,0.752,-,CALM,��
2019/02/08,20:50,0.786,1.167,0.805,1.499,1.079,0.445,0.794,0.751,��쓌,0.6,��
2019/02/08,21:00,0.783,1.168,0.808,1.499,1.080,0.445,0.794,0.751,��,0.6,��
2019/02/08,21:10,0.784,1.167,0.808,1.500,1.078,0.445,0.793,0.751,�k�k��,2.3,��
2019/02/08,21:20,0.783,1.168,0.807,1.496,1.077,0.444,0.795,0.752,�k�k��,5.3,��
2019/02/08,21:30,0.785,1.172,0.807,1.499,1.081,0.446,0.793,0.752,�k��,5.6,��
2019/02/08,21:40,0.783,1.171,0.807,1.499,1.079,0.445,0.794,0.753,�k��,8.3,��
2019/02/08,21:50,0.784,1.168,0.806,1.499,1.077,0.444,0.794,0.752,�k�k��,5.7,��
2019/02/08,22:00,0.784,1.169,0.808,1.500,1.079,0.444,0.793,0.751,�k�k��,5.3,��
2019/02/08,22:10,0.782,1.171,0.807,1.497,1.080,0.443,0.795,0.753,�k�k��,5.3,��
2019/02/08,22:20,0.783,1.169,0.806,1.499,1.077,0.442,0.796,0.751,�k�k��,2.9,��
2019/02/08,22:30,0.783,1.168,0.806,1.497,1.078,0.443,0.793,0.752,�k,3.5,��
2019/02/08,22:40,0.781,1.170,0.807,1.499,1.078,0.442,0.794,0.751,�k,5.1,��
2019/02/08,22:50,0.785,1.169,0.806,1.498,1.078,0.444,0.794,0.751,�k,6.0,��
2019/02/08,23:00,0.781,1.167,0.807,1.497,1.076,0.444,0.793,0.751,�k�k��,6.7,��
2019/02/08,23:10,0.783,1.168,0.805,1.499,1.078,0.443,0.794,0.750,�k�k��,7.9,��
2019/02/08,23:20,0.783,1.168,0.805,1.498,1.076,0.445,0.795,0.751,�k�k��,8.1,��
2019/02/08,23:30,0.785,1.171,0.806,1.502,1.077,0.445,0.794,0.750,�k�k��,6.3,��
2019/02/08,23:40,0.781,1.166,0.805,1.499,1.077,0.444,0.794,0.750,�k�k��,4.7,��
2019/02/08,23:50,0.782,1.168,0.805,1.498,1.072,0.443,0.794,0.749,�k�k��,6.2,��
